User: anonymous   Login
Location: Nitra
(48.3167°N, 18.0833°E)
Time: 04:40:21
(UTC+01:00)
Language:

STARLINK-1707 - Orbit

View from above orbital plane
View from above orbital plane
View from above satellite
View from above satellite

Ground track
Ground track

The orbit data is extracted from the following two-line orbital elements,

1 46359C 20062AM  20332.59514795 -.00019204  00000-0 -20956-3 0  3326
2 46359  52.9977  12.6467 0002306  17.7903 108.9199 15.62737387    19
Epoch (UTC): 27 November 2020 14:17:00
Eccentricity: 0.0002306
inclination: 52.9977°
perigee height: 378 km
apogee height: 381 km
right ascension of ascending node: 12.6467°
argument of perigee: 17.7903°
revolutions per day: 15.62737387
mean anomaly at epoch: 108.9199°
orbit number at epoch: 1

The dashed part of the orbit path shows where the satellite is in the earth's shadow,  

DLR